Regional Weather Roundup
Issued by NWS

Home | Current Version | Previous Version | Graphics & Text | Print | Product List | Glossary On
Versions: 1 2 3 4 5 6 7 8 9 10 11 12 13 14 15 16 17 18 19 20 21 22 23 24 25 26 27 28 29 30 31 32 33 34 35 36 37 38 39 40 41 42 43 44 45 46 47 48 49 50
168
ASUS43 KMKX 232000
RWRWI

WISCONSIN REGIONAL WEATHER ROUNDUP
NATIONAL WEATHER SERVICE MILWAUKEE/SULLIVAN WI
200 PM CST TUE JAN 23 2018

NOTE: "FAIR" INDICATES FEW OR NO CLOUDS BELOW 12,000 FEET WITH NO
SIGNIFICANT WEATHER AND/OR OBSTRUCTIONS TO VISIBILITY.

WIZ001-002-006>008-014>016-023>028-232100-
NORTHWEST WISCONSIN

CITY           SKY/WX    TMP DP  RH WIND       PRES   REMARKS
SUPERIOR ARPT  FAIR      21   6  52 CALM      30.08S
ASHLAND        CLOUDY    23  15  71 N6        30.04R WCI  16
HAYWARD        CLOUDY    22  13  68 VRB6      30.02R WCI  14
SIREN          FAIR      20   8  59 N3        30.06S
CUMBERLAND     CLOUDY    18  10  73 N9        30.02S WCI   6
RICE LAKE      FLURRIES  19  13  79 NW5       30.05R WCI  12
CHETEK         FLURRIES  19  14  81 NW7       30.03R WCI  10
LADYSMITH      CLOUDY    22  16  76 NW12      30.00S WCI  11
EAU CLAIRE     NOT AVBL
MENOMONIE      CLOUDY    22  14  71 N9        30.04S WCI  11
NEW RICHMOND   FAIR      20  10  64 NW10      30.05R WCI   9
OSCEOLA        FAIR      21  10  63 NW9       30.09S WCI  11
$$

WIZ003>005-009-010-017-018-232100-
NORTH CENTRAL WISCONSIN

CITY           SKY/WX    TMP DP  RH WIND       PRES   REMARKS
MANITOWISH WTR CLOUDY    18  18  99 N5        29.93R WCI  11
ARBOR VITAE    CLOUDY    20  17  87 N9        29.92R FOG     WCI   9
WOODRUFF       CLOUDY    20  17  87 N9        29.92R FOG     WCI   9
RHINELANDER    CLOUDY    21  15  78 N6        29.91R WCI  13
EAGLE RIVER    CLOUDY    19  16  88 N13       29.90R WCI   5
LAND O LAKES   CLOUDY    18  16  90 N10       29.92R WCI   6
PHILLIPS       CLOUDY    19  16  87 N7        29.95R WCI  10
TOMAHAWK       CLOUDY    21  15  78 N8        29.92S WCI  12
MEDFORD        CLOUDY    21  15  78 N10       29.92R WCI  10
MERRILL        CLOUDY    23  17  76 N14       29.92S WCI  11
$$

WIZ029-030-035-036-043>047-232100-
CENTRAL WISCONSIN

CITY           SKY/WX    TMP DP  RH WIND       PRES   REMARKS
WAUSAU         PTSUNNY   24  17  74 N10       29.90R WCI  14
MOSINEE        PTSUNNY   25  19  80 N14       29.92R WCI  13
MARSHFIELD     CLOUDY    23  17  78 NW13      29.93R WCI  11
STEVENS POINT  CLOUDY    24  19  81 NW7       29.91R WCI  15
WAUPACA        CLOUDY    30  20  67 NW13      29.90R WCI  20
WAUTOMA        CLOUDY    27  20  75 NW12      29.93R WCI  17
WISC RAPIDS    CLOUDY    24  16  71 NW13      29.95  WCI  12
CAMP DOUGLAS   CLOUDY    25  21  86 NW12      29.96R WCI  14
$$

WIZ011>013-019>022-031-037>040-048>050-232100-
NORTHEAST WISCONSIN

CITY           SKY/WX    TMP DP  RH WIND       PRES   REMARKS
ANTIGO         CLOUDY    21  17  84 N12       29.88R WCI   9
SHAWANO        CLOUDY    30  21  69 N8        29.89R WCI  22
OCONTO         CLOUDY    27  20  76 N13G18    29.88R WCI  16
STURGEON BAY   CLOUDY    26  22  84 N21G26    29.86R WCI  12
GREEN BAY      CLOUDY    28  21  75 NW14      29.89R WCI  17
MANITOWOC      CLOUDY    29  23  78 N20G26    29.85R WCI  16
APPLETON       CLOUDY    27  19  74 NW12      29.87R WCI  16
CLINTONVILLE   CLOUDY    28  19  69 N9        29.89R WCI  20
OSHKOSH        CLOUDY    27  20  75 NW14      29.90R WCI  16
$$

WIZ032>034-041-042-053>061-232100-
SOUTHWEST WISCONSIN

CITY           SKY/WX    TMP DP  RH WIND       PRES   REMARKS
LA CROSSE      CLOUDY    24  18  77 NW14      30.04R WCI  12
SPARTA         CLOUDY    24  21  89 NW7       30.00R WCI  16
VIROQUA        CLOUDY    22  21  96 N12       29.97R WCI  11
BOSCOBEL       CLOUDY    28  21  75 N10       30.01R WCI  19
PRAIRIE DU CHI CLOUDY    25  19  78 W10       30.02R WCI  15
PLATTEVILLE    CLOUDY    27  26  96 NW14      29.97R WCI  16
$$

WIZ056-057-062-063-064-067-068-232100-
SOUTH CENTRAL WISCONSIN

CITY           SKY/WX    TMP DP  RH WIND       PRES   REMARKS
REEDSBURG      CLOUDY    25  22  89 NW10      29.95R WCI  15
BARABOO/DELLS  CLOUDY    24  21  87 NW8       29.94R WCI  15
LONE ROCK      CLOUDY    28  23  81 NW9       29.98R WCI  19
MINERAL POINT  CLOUDY    28  28 100 NW14      29.94R WCI  17
MADISON        CLOUDY    26  21  81 NW14      29.94R WCI  14
MIDDLETON      CLOUDY    28  24  85 NW17      29.93R WCI  16
WATERTOWN      CLOUDY    27  24  89 NW12G18   29.89R WCI  17
MONROE         CLOUDY    28  25  86 NW14G22   29.92R WCI  17
JANESVILLE     CLOUDY    30  30 100 NW13      29.92R WCI  20
$$

WIZ051-052-058>065-066-070>072-232100-
SOUTHEAST WISCONSIN

CITY           SKY/WX    TMP DP  RH WIND       PRES   REMARKS
MILWAUKEE      CLOUDY    30  24  78 NW14G22   29.87R WCI  19
WAUKESHA       CLOUDY    27  21  80 NW12G18   29.89R WCI  16
MILWAUKEE/TIMM CLOUDY    28  21  74 NW12G21   29.89R WCI  18
RACINE         CLOUDY    29  24  82 NW15G22   29.89R WCI  18
BURLINGTON     CLOUDY    28  22  81 NW12      29.89R WCI  17
KENOSHA        CLOUDY    29  22  75 NW13      29.88R WCI  19
FOND DU LAC    CLOUDY    28  20  71 NW14      29.90R WCI  17
SHEBOYGAN      CLOUDY    29  22  75 NW14G23   29.86R WCI  18
WEST BEND      CLOUDY    28  23  80 NW14G22   29.86R WCI  17
JUNEAU         CLOUDY    26  21  80 NW16G22   29.90R WCI  14
$$

LSZ147-162-232100-
LAKE SUPERIOR

STATION/POSITION TIME  TEMP    WIND        PRES    WAVE
                       AIR SEA DIR/SP/G            HT/PER
                 (UTC) (F)     (DEG/KT/KT) (MB)    (FT/S)
DEVILS ISLAND    1900   24     350/  6/  7 1018.1R
SAXON HARBOR     1940   24      10/  8/ 11 1016.6R
$$

LMZ867-665-643>646-232100-
LAKE MICHIGAN

STATION/POSITION TIME  TEMP    WIND        PRES    WAVE
                       AIR SEA DIR/SP/G            HT/PER
                 (UTC) (F)     (DEG/KT/KT) (MB)    (FT/S)
NORTHPORT PIER   1940   25     320/  9/ 14 1010.5R
KEWAUNEE LAKESHO 1930   29     330/ 11/ 15 1009.8R
SHEBOYGAN LAKESH 1900   28     320/ 18/ 22 1010.9R
PORT WASHINGTON  1930   29     320/  7/ 16 1012.2R
MILWAUKEE LAKESH 1930   29     320/  9/ 12   N/A
KENOSHA   LAKESH 1900   28     320/  9/ 14 1011.2
$$

TC  - TEMPERATURE IN CELSIUS
VSB - VISIBILITY IN STATUTE MILES
WCI - WIND CHILL INDEX
HX  - HEAT INDEX





USA.gov is the U.S. government's official web portal to all federal, state and local government web resources and services.